Main page
METAR-TAF:

METAR-TAF

Airports :

J6-a, Netherlands

Oil platform

latitude: 53-49-27N, longitude: 2-56-43E, elevation: 34 m

Current weather observation

The report was made 13 minutes ago, at 21:25 UTC
Wind 35 kt from the South/Southwest
Temperature 9°C
Humidity 93%
Pressure 1008 hPa
Visibility 10 km or more

METAR: EHJA 232125Z AUTO 21035KT 9999 NSC 09/08 Q1008 W///H///

Time: 22:38 (21:38 UTC)


TAF: missing

Weather observations and forecasts of more than 4000 airports (METAR and TAF reports).

The available stations are represented by yellow and red dots on the map.

Hover mouse over dot to see the name of the station.

Then click to see weather observations and forecasts.

To change the map : click on the green buttons with a black cross to zoom in, on the green button with a dash to zoom out, or on the green arrows for adjacent maps.


METAR-TAF: